NVY845 EGTF-EGMC

Flight info

Callsign NVY845
Flight time 0h -45m
Altitude 9000
Route EGTF/06 EGMC/05
Aircraft P46T/L-SBDGRWY/SB1

Departure

Time 2026-04-24 13:41
Airport Fairoaks Airport (EGTF)

Arrival

Time 2026-04-24 12:55
Airport London Southend Airport (EGMC)
Time Latitude Longitude Altitude Speed Heading
2026-04-24 12:39 51.36473 0.72868 1792 ft 163 kts 33°
2026-04-24 12:39 51.37472 0.73719 1801 ft 165 kts 32°
2026-04-24 12:39 51.38499 0.74603 1809 ft 170 kts 32°
2026-04-24 12:40 51.39548 0.75507 1804 ft 171 kts 32°
2026-04-24 12:40 51.40597 0.76418 1800 ft 173 kts 32°
2026-04-24 12:40 51.41768 0.76835 1792 ft 181 kts 358°
2026-04-24 12:40 51.42913 0.76003 1798 ft 187 kts 331°
2026-04-24 12:41 51.43964 0.74755 1806 ft 189 kts 326°
2026-04-24 12:41 51.45004 0.73437 1796 ft 190 kts 327°
2026-04-24 12:41 51.46026 0.72116 1801 ft 187 kts 327°
2026-04-24 12:41 51.47067 0.70885 1801 ft 185 kts 329°
2026-04-24 12:42 51.48115 0.69695 1797 ft 184 kts 333°
2026-04-24 12:42 51.49178 0.68575 1794 ft 180 kts 333°
2026-04-24 12:42 51.50215 0.67491 1795 ft 176 kts 332°
2026-04-24 12:42 51.51235 0.66419 1796 ft 174 kts 332°
2026-04-24 12:43 51.52234 0.65357 1794 ft 170 kts 332°
2026-04-24 12:43 51.53231 0.64379 1743 ft 162 kts 341°
2026-04-24 12:43 51.54211 0.64089 1845 ft 135 kts 13°
2026-04-24 12:43 51.55007 0.64736 1323 ft 133 kts 54°
2026-04-24 12:44 51.55530 0.65952 741 ft 127 kts 58°
2026-04-24 12:44 51.56000 0.66996 364 ft 101 kts 59°
2026-04-24 12:44 51.56378 0.67839 148 ft 86 kts 60°
2026-04-24 12:44 51.56695 0.68555 53 ft 70 kts 62°
2026-04-24 12:45 51.56945 0.69117 53 ft 58 kts 54°
2026-04-24 12:45 51.57219 0.69725 101 ft 74 kts 55°
2026-04-24 12:45 51.57554 0.70452 283 ft 87 kts 56°
2026-04-24 12:45 51.57959 0.71234 591 ft 99 kts 46°
2026-04-24 12:46 51.58647 0.71419 941 ft 115 kts 338°
2026-04-24 12:46 51.59355 0.70626 1112 ft 140 kts 328°
2026-04-24 12:46 51.59864 0.69209 1172 ft 165 kts 278°
2026-04-24 12:46 51.59539 0.67429 1185 ft 172 kts 234°
2026-04-24 12:47 51.58832 0.65835 1168 ft 178 kts 233°
2026-04-24 12:47 51.58118 0.64162 1134 ft 182 kts 236°
2026-04-24 12:47 51.57436 0.62445 1114 ft 181 kts 238°
2026-04-24 12:47 51.56696 0.60812 1121 ft 180 kts 220°
2026-04-24 12:48 51.55562 0.60203 1063 ft 175 kts 172°
2026-04-24 12:48 51.54511 0.60982 964 ft 166 kts 129°
2026-04-24 12:48 51.54155 0.62590 1012 ft 146 kts 82°
2026-04-24 12:48 51.54629 0.63900 914 ft 135 kts 53°
2026-04-24 12:49 51.55129 0.65053 729 ft 116 kts 59°
2026-04-24 12:49 51.55566 0.66008 502 ft 93 kts 58°
2026-04-24 12:49 51.55909 0.66795 352 ft 82 kts 60°
2026-04-24 12:49 51.56241 0.67534 230 ft 81 kts 60°
2026-04-24 12:50 51.56558 0.68249 100 ft 79 kts 58°
2026-04-24 12:50 51.56853 0.68912 53 ft 62 kts 53°
2026-04-24 12:50 51.57123 0.69517 53 ft 79 kts 57°
2026-04-24 12:50 51.57474 0.70257 273 ft 87 kts 56°
2026-04-24 12:51 51.57877 0.71048 611 ft 96 kts 53°
2026-04-24 12:51 51.58480 0.71480 986 ft 109 kts 348°
2026-04-24 12:51 51.59138 0.70720 1216 ft 130 kts 324°
2026-04-24 12:51 51.59903 0.69702 1263 ft 152 kts 322°
2026-04-24 12:52 51.60272 0.68196 1486 ft 156 kts 259°
2026-04-24 12:52 51.59648 0.66684 1456 ft 168 kts 227°
2026-04-24 12:52 51.58939 0.65197 1524 ft 173 kts 232°
2026-04-24 12:52 51.58185 0.63583 1435 ft 181 kts 231°
2026-04-24 12:53 51.57432 0.61993 1357 ft 182 kts 231°
2026-04-24 12:53 51.56458 0.60789 1364 ft 175 kts 194°
2026-04-24 12:53 51.55311 0.60897 1299 ft 163 kts 149°
2026-04-24 12:53 51.54637 0.62182 1179 ft 149 kts 101°
2026-04-24 12:54 51.54741 0.63787 948 ft 147 kts 69°
2026-04-24 12:54 51.55172 0.65145 685 ft 123 kts 58°
2026-04-24 12:54 51.55607 0.66101 458 ft 92 kts 58°
2026-04-24 12:54 51.55966 0.66927 326 ft 89 kts 57°
2026-04-24 12:55 51.56317 0.67707 165 ft 83 kts 61°
2026-04-24 12:55 51.56635 0.68425 58 ft 74 kts 59°
2026-04-24 12:55 51.56890 0.68995 53 ft 53 kts 54°
2026-04-24 12:55 51.57069 0.69390 51 ft 35 kts 53°
2026-04-24 12:56 51.57205 0.69696 52 ft 47 kts 54°
2026-04-24 12:56 51.57464 0.70264 119 ft 73 kts 52°
2026-04-24 12:56 51.57810 0.70948 367 ft 82 kts 53°
2026-04-24 12:56 51.58185 0.71685 651 ft 92 kts 54°
2026-04-24 12:57 51.58615 0.72575 905 ft 114 kts 54°
2026-04-24 12:57 51.59156 0.73715 1035 ft 142 kts 53°
2026-04-24 12:57 51.59782 0.75015 1167 ft 150 kts 53°
2026-04-24 12:57 51.60436 0.76373 1303 ft 155 kts 53°
2026-04-24 12:58 51.61110 0.77781 1301 ft 165 kts 53°
2026-04-24 12:58 51.61824 0.79261 1314 ft 170 kts 53°
2026-04-24 12:58 51.62580 0.80770 1305 ft 176 kts 45°
2026-04-24 12:58 51.63478 0.82088 1301 ft 174 kts 58°
2026-04-24 12:59 51.63711 0.83956 1302 ft 177 kts 98°
2026-04-24 12:59 51.63106 0.85564 1294 ft 173 kts 139°
2026-04-24 12:59 51.61947 0.86066 1285 ft 176 kts 182°
2026-04-24 12:59 51.60832 0.85311 1292 ft 173 kts 207°
2026-04-24 13:00 51.59884 0.84433 1298 ft 172 kts 207°
2026-04-24 13:00 51.58852 0.83488 1296 ft 171 kts 207°
2026-04-24 13:00 51.57823 0.82529 1292 ft 173 kts 207°
2026-04-24 13:00 51.56783 0.81535 1291 ft 175 kts 207°
2026-04-24 13:01 51.55732 0.80534 1291 ft 175 kts 207°
2026-04-24 13:01 51.54693 0.79548 1294 ft 172 kts 208°
2026-04-24 13:01 51.53680 0.78544 1287 ft 170 kts 216°
2026-04-24 13:01 51.53063 0.76980 1294 ft 167 kts 252°
2026-04-24 13:02 51.52736 0.75194 1286 ft 166 kts 253°
2026-04-24 13:02 51.52408 0.73447 1291 ft 161 kts 253°
2026-04-24 13:02 51.52086 0.71761 1290 ft 159 kts 253°
2026-04-24 13:02 51.51761 0.70072 1292 ft 159 kts 253°
2026-04-24 13:03 51.51422 0.68373 1290 ft 160 kts 252°
2026-04-24 13:03 51.51102 0.66663 1293 ft 160 kts 254°
2026-04-24 13:03 51.50770 0.64978 1293 ft 157 kts 253°
2026-04-24 13:03 51.50445 0.63317 1369 ft 154 kts 253°
2026-04-24 13:04 51.50122 0.61687 1682 ft 154 kts 252°
2026-04-24 13:04 51.49749 0.60086 1980 ft 154 kts 245°
2026-04-24 13:04 51.49280 0.58429 2011 ft 172 kts 245°
2026-04-24 13:04 51.48780 0.56625 2009 ft 186 kts 246°
2026-04-24 13:05 51.48238 0.54683 2014 ft 196 kts 245°
2026-04-24 13:05 51.47667 0.52643 2013 ft 202 kts 245°
2026-04-24 13:05 51.47095 0.50560 2006 ft 205 kts 246°
2026-04-24 13:05 51.46502 0.48474 2004 ft 206 kts 245°
2026-04-24 13:06 51.45915 0.46384 2008 ft 205 kts 245°
2026-04-24 13:06 51.45339 0.44295 1996 ft 205 kts 245°
2026-04-24 13:06 51.44759 0.42206 1994 ft 204 kts 245°
2026-04-24 13:06 51.44183 0.40133 2000 ft 204 kts 245°
2026-04-24 13:07 51.43607 0.38033 1980 ft 207 kts 245°
2026-04-24 13:07 51.43041 0.35951 1979 ft 205 kts 245°
2026-04-24 13:07 51.42477 0.33835 1984 ft 204 kts 246°
2026-04-24 13:07 51.41914 0.31755 1981 ft 203 kts 245°
2026-04-24 13:08 51.41354 0.29704 1982 ft 205 kts 245°
2026-04-24 13:08 51.40786 0.27634 1978 ft 204 kts 245°
2026-04-24 13:08 51.40088 0.25676 1975 ft 203 kts 227°
2026-04-24 13:09 51.38086 0.22546 1978 ft 204 kts 231°
2026-04-24 13:09 51.37311 0.20651 1979 ft 208 kts 236°
2026-04-24 13:09 51.36523 0.18669 1980 ft 209 kts 235°
2026-04-24 13:09 51.35738 0.16709 1970 ft 208 kts 236°
2026-04-24 13:10 51.34954 0.14788 1975 ft 205 kts 235°
2026-04-24 13:10 51.34296 0.12808 1968 ft 204 kts 245°
2026-04-24 13:10 51.33698 0.10743 1974 ft 203 kts 244°
2026-04-24 13:10 51.33099 0.08689 1972 ft 205 kts 242°
2026-04-24 13:11 51.32164 0.07036 1959 ft 202 kts 206°
2026-04-24 13:11 51.30897 0.06159 1976 ft 199 kts 196°
2026-04-24 13:11 51.29606 0.05344 1970 ft 199 kts 197°
2026-04-24 13:11 51.28340 0.04451 1988 ft 200 kts 207°
2026-04-24 13:12 51.27130 0.03406 1985 ft 195 kts 191°
2026-04-24 13:12 51.25852 0.03474 1754 ft 185 kts 160°
2026-04-24 13:12 51.24608 0.04104 1313 ft 187 kts 156°
2026-04-24 13:12 51.23402 0.04755 1371 ft 178 kts 156°
2026-04-24 13:13 51.22212 0.05377 1397 ft 182 kts 156°
2026-04-24 13:13 51.20997 0.06026 1398 ft 185 kts 155°
2026-04-24 13:13 51.19837 0.06874 1401 ft 183 kts 146°
2026-04-24 13:13 51.18727 0.07889 1406 ft 185 kts 144°
2026-04-24 13:14 51.17594 0.08925 1407 ft 190 kts 146°
2026-04-24 13:14 51.16445 0.10001 1408 ft 193 kts 146°
2026-04-24 13:14 51.15299 0.11110 1402 ft 193 kts 150°
2026-04-24 13:14 51.13985 0.11448 1399 ft 199 kts 182°
2026-04-24 13:15 51.12620 0.11173 1398 ft 197 kts 184°
2026-04-24 13:15 51.11270 0.10809 1396 ft 197 kts 186°
2026-04-24 13:15 51.09914 0.10462 1396 ft 197 kts 185°
2026-04-24 13:15 51.08564 0.10153 1396 ft 195 kts 184°
2026-04-24 13:16 51.07309 0.09389 1385 ft 197 kts 218°
2026-04-24 13:16 51.06592 0.07565 1393 ft 199 kts 253°
2026-04-24 13:16 51.06267 0.05415 1390 ft 200 kts 258°
2026-04-24 13:16 51.05972 0.03257 1393 ft 200 kts 258°
2026-04-24 13:17 51.05658 0.01098 1388 ft 201 kts 257°
2026-04-24 13:17 51.05366 -0.01063 1387 ft 204 kts 258°
2026-04-24 13:17 51.05072 -0.03290 1381 ft 206 kts 258°
2026-04-24 13:17 51.04778 -0.05512 1383 ft 205 kts 258°
2026-04-24 13:18 51.04478 -0.07711 1381 ft 202 kts 256°
2026-04-24 13:18 51.03777 -0.09619 1369 ft 202 kts 224°
2026-04-24 13:18 51.02808 -0.11114 1366 ft 190 kts 222°
2026-04-24 13:18 51.01873 -0.12533 1372 ft 182 kts 221°
2026-04-24 13:19 51.00953 -0.13898 1373 ft 179 kts 220°
2026-04-24 13:19 51.00055 -0.15262 1368 ft 178 kts 221°
2026-04-24 13:19 50.99180 -0.16574 1372 ft 176 kts 221°
2026-04-24 13:19 50.98311 -0.17904 1384 ft 169 kts 221°
2026-04-24 13:20 50.97480 -0.19204 1389 ft 167 kts 221°
2026-04-24 13:20 50.96724 -0.20583 1401 ft 165 kts 230°
2026-04-24 13:20 50.95945 -0.21841 1389 ft 154 kts 211°
2026-04-24 13:20 50.95031 -0.22520 1385 ft 140 kts 197°
2026-04-24 13:21 50.94156 -0.23075 1389 ft 132 kts 194°
2026-04-24 13:21 50.93314 -0.23601 1386 ft 127 kts 197°
2026-04-24 13:21 50.92514 -0.24098 1389 ft 124 kts 195°
2026-04-24 13:21 50.91713 -0.24601 1359 ft 123 kts 197°
2026-04-24 13:22 50.90945 -0.25085 1345 ft 117 kts 195°
2026-04-24 13:22 50.90194 -0.25548 1277 ft 115 kts 195°
2026-04-24 13:22 50.89452 -0.26060 1188 ft 117 kts 197°
2026-04-24 13:22 50.88696 -0.26541 1090 ft 118 kts 194°
2026-04-24 13:23 50.87938 -0.27013 1060 ft 116 kts 195°
2026-04-24 13:23 50.87186 -0.27466 971 ft 116 kts 194°
2026-04-24 13:23 50.86458 -0.27905 791 ft 104 kts 196°
2026-04-24 13:23 50.85833 -0.28346 564 ft 93 kts 173°
2026-04-24 13:24 50.85262 -0.28672 359 ft 85 kts 189°
2026-04-24 13:24 50.84689 -0.29025 237 ft 94 kts 196°
2026-04-24 13:24 50.84104 -0.29395 51 ft 89 kts 193°
2026-04-24 13:24 50.83606 -0.29702 11 ft 61 kts 198°
2026-04-24 13:25 50.83384 -0.29843 10 ft 17 kts 204°
2026-04-24 13:25 50.83266 -0.29918 11 ft 14 kts 206°
2026-04-24 13:25 50.83258 -0.29826 10 ft 16 kts 65°
2026-04-24 13:25 50.83316 -0.29642 10 ft 19 kts 62°
2026-04-24 13:26 50.83368 -0.29478 10 ft 12 kts 63°
2026-04-24 13:26 50.83372 -0.29467 10 ft 0 kts 63°
2026-04-24 13:27 50.83376 -0.29456 10 ft 0 kts 48°
2026-04-24 13:27 50.83383 -0.29438 10 ft 6 kts 69°
2026-04-24 13:27 50.83416 -0.29326 10 ft 19 kts 68°
2026-04-24 13:28 50.83456 -0.29142 10 ft 15 kts 75°
2026-04-24 13:28 50.83482 -0.28998 10 ft 12 kts 74°
2026-04-24 13:28 50.83505 -0.28885 10 ft 9 kts 73°
2026-04-24 13:28 50.83542 -0.28815 10 ft 8 kts 21°
2026-04-24 13:29 50.83598 -0.28829 10 ft 9 kts 336°
2026-04-24 13:29 50.83649 -0.28911 10 ft 12 kts 304°
2026-04-24 13:29 50.83699 -0.29025 10 ft 14 kts 304°
2026-04-24 13:29 50.83757 -0.29156 10 ft 15 kts 304°
2026-04-24 13:30 50.83813 -0.29284 10 ft 10 kts 306°
2026-04-24 13:30 50.83869 -0.29337 10 ft 11 kts 356°
2026-04-24 13:30 50.83945 -0.29332 10 ft 11 kts
2026-04-24 13:30 50.83991 -0.29425 10 ft 13 kts 291°
2026-04-24 13:31 50.83946 -0.29489 11 ft 24 kts 202°
2026-04-24 13:31 50.83609 -0.29710 11 ft 79 kts 201°
2026-04-24 13:31 50.83006 -0.30101 183 ft 101 kts 202°
2026-04-24 13:31 50.82361 -0.30688 499 ft 119 kts 203°
2026-04-24 13:32 50.81640 -0.31556 734 ft 142 kts 234°
2026-04-24 13:32 50.81349 -0.33020 1255 ft 140 kts 253°
2026-04-24 13:32 50.81005 -0.34533 1502 ft 161 kts 250°
2026-04-24 13:32 50.80600 -0.36361 1515 ft 190 kts 251°
2026-04-24 13:33 50.80156 -0.38444 1514 ft 209 kts 251°
2026-04-24 13:33 50.79691 -0.40642 1509 ft 208 kts 251°
2026-04-24 13:33 50.79242 -0.42766 1508 ft 206 kts 251°
2026-04-24 13:33 50.78776 -0.44914 1509 ft 207 kts 250°
2026-04-24 13:34 50.78323 -0.47058 1511 ft 204 kts 251°
2026-04-24 13:34 50.77869 -0.49189 1511 ft 204 kts 251°
2026-04-24 13:34 50.77406 -0.51296 1513 ft 203 kts 251°
2026-04-24 13:34 50.76952 -0.53414 1512 ft 204 kts 251°
2026-04-24 13:35 50.76602 -0.55558 1501 ft 201 kts 267°
2026-04-24 13:35 50.76646 -0.57761 1504 ft 201 kts 274°
2026-04-24 13:35 50.76736 -0.59975 1504 ft 202 kts 274°
2026-04-24 13:35 50.76817 -0.62188 1503 ft 201 kts 274°
2026-04-24 13:36 50.76884 -0.64368 1507 ft 202 kts 274°
2026-04-24 13:36 50.76951 -0.66592 1508 ft 203 kts 274°
2026-04-24 13:36 50.77020 -0.68813 1509 ft 202 kts 274°
2026-04-24 13:36 50.77252 -0.70958 1498 ft 198 kts 298°
2026-04-24 13:37 50.78183 -0.72458 1502 ft 190 kts 338°
2026-04-24 13:37 50.79446 -0.72706 1501 ft 183 kts 13°
2026-04-24 13:37 50.80680 -0.72271 1506 ft 181 kts 18°
2026-04-24 13:37 50.81903 -0.71802 1514 ft 181 kts 18°
2026-04-24 13:38 50.83129 -0.71322 1509 ft 181 kts 18°
2026-04-24 13:38 50.84345 -0.70822 1515 ft 181 kts 19°
2026-04-24 13:38 50.85557 -0.70319 1513 ft 184 kts 19°
2026-04-24 13:38 50.86791 -0.69800 1510 ft 183 kts 19°
2026-04-24 13:39 50.88015 -0.69285 1509 ft 181 kts 19°
2026-04-24 13:39 50.89230 -0.68769 1507 ft 181 kts 19°
2026-04-24 13:39 50.90436 -0.68243 1502 ft 178 kts 18°
2026-04-24 13:39 50.91614 -0.67699 1493 ft 175 kts 19°
2026-04-24 13:40 50.92777 -0.67183 1505 ft 174 kts 19°
2026-04-24 13:40 50.93944 -0.66700 1512 ft 174 kts 19°
2026-04-24 13:40 50.95139 -0.66180 1451 ft 181 kts 19°
2026-04-24 13:40 50.96346 -0.65648 1447 ft 180 kts 19°
2026-04-24 13:41 50.97555 -0.65106 1451 ft 180 kts 19°
2026-04-24 13:41 50.98357 -0.64758 1454 ft 181 kts 18°
2026-04-24 13:41 50.99581 -0.64224 1444 ft 183 kts 19°
2026-04-24 13:41 51.00805 -0.63686 1437 ft 180 kts 19°
2026-04-24 13:42 51.02012 -0.63171 1454 ft 179 kts 18°
2026-04-24 13:42 51.03217 -0.62646 1447 ft 180 kts 20°
2026-04-24 13:42 51.04827 -0.61982 1454 ft 181 kts 18°
2026-04-24 13:42 51.05649 -0.61616 1457 ft 182 kts 20°
2026-04-24 13:43 51.06878 -0.61180 1456 ft 185 kts 12°
2026-04-24 13:43 51.08156 -0.60955 1457 ft 185 kts 10°
2026-04-24 13:43 51.09440 -0.60757 1460 ft 186 kts 10°
2026-04-24 13:43 51.10728 -0.60541 1453 ft 186 kts 10°
2026-04-24 13:44 51.12022 -0.60325 1467 ft 189 kts 10°
2026-04-24 13:44 51.13328 -0.60105 1464 ft 188 kts 11°
2026-04-24 13:44 51.14625 -0.59900 1460 ft 186 kts
2026-04-24 13:44 51.15910 -0.59667 1459 ft 186 kts
2026-04-24 13:45 51.17196 -0.59419 1459 ft 186 kts 10°
2026-04-24 13:45 51.18489 -0.59286 1459 ft 186 kts
2026-04-24 13:45 51.19774 -0.59233 1455 ft 183 kts
2026-04-24 13:45 51.21046 -0.59210 1463 ft 184 kts
2026-04-24 13:46 51.22285 -0.59240 1451 ft 175 kts 358°
2026-04-24 13:46 51.23443 -0.59561 1450 ft 167 kts 353°
2026-04-24 13:46 51.24529 -0.60007 1472 ft 156 kts 351°
2026-04-24 13:46 51.25567 -0.60464 1420 ft 155 kts 349°
2026-04-24 13:47 51.26625 -0.60924 1271 ft 160 kts 350°
2026-04-24 13:47 51.27703 -0.61393 1170 ft 159 kts 349°
2026-04-24 13:47 51.28718 -0.61832 1050 ft 142 kts 353°
2026-04-24 13:47 51.29635 -0.62094 954 ft 125 kts 357°
2026-04-24 13:48 51.30464 -0.62338 954 ft 118 kts 358°
2026-04-24 13:48 51.31240 -0.62318 980 ft 107 kts 21°
2026-04-24 13:48 51.31922 -0.61872 928 ft 107 kts 33°
2026-04-24 13:48 51.32526 -0.61174 809 ft 107 kts 38°
2026-04-24 13:49 51.33018 -0.60427 705 ft 90 kts 53°
2026-04-24 13:49 51.33334 -0.59630 633 ft 81 kts 60°
2026-04-24 13:49 51.33635 -0.58907 558 ft 75 kts 62°
2026-04-24 13:49 51.33878 -0.58182 461 ft 77 kts 59°
2026-04-24 13:50 51.34186 -0.57466 332 ft 79 kts 59°
2026-04-24 13:50 51.34459 -0.56753 157 ft 72 kts 62°
2026-04-24 13:50 51.34710 -0.56113 81 ft 60 kts 62°
2026-04-24 13:50 51.34876 -0.55687 76 ft 29 kts 58°
2026-04-24 13:51 51.34959 -0.55477 77 ft 19 kts 59°
2026-04-24 13:51 51.35014 -0.55413 83 ft 9 kts 338°
2026-04-24 13:51 51.35062 -0.55460 82 ft 7 kts 324°
2026-04-24 13:51 51.35084 -0.55512 84 ft 8 kts 256°
2026-04-24 13:52 51.35037 -0.55635 87 ft 18 kts 235°
2026-04-24 13:52 51.34983 -0.55771 87 ft 15 kts 238°
2026-04-24 13:52 51.34927 -0.55916 83 ft 16 kts 239°
2026-04-24 13:52 51.34922 -0.56082 86 ft 15 kts 302°
2026-04-24 13:53 51.34976 -0.56153 89 ft 8 kts 341°
2026-04-24 13:53 51.35015 -0.56152 91 ft 7 kts
2026-04-24 13:53 51.35065 -0.56177 94 ft 4 kts 307°
2026-04-24 13:53 51.35062 -0.56209 93 ft 0 kts 249°